Wind_Speed
47 48 48 49 49 49 49 49 50 50 51 51 51 51 52 52 53 53 53 54 55 55 55 55 56 57 57 57 57 57 57 58 58 58 59 60 60 60 61 62 63 63 63
47 48 48 49 48 49 49 49 50 50 50 51 51 51 51 52 52 53 53 53 54 54 54 54 55 56 56 56 56 56 57 58 58 58 58 60 60 61 61 61 62 63 63
46 47 47 48 48 48 49 49 49 50 51 51 51 51 51 52 52 53 53 54 54 53 53 54 54 54 54 54 55 56 56 57 58 58 57 58 59 60 60 60 61 62 62
45 47 47 47 48 48 48 48 47 48 49 50 50 50 51 51 51 52 52 52 52 52 52 52 53 53 53 54 54 54 55 55 55 56 56 57 58 59 60 60 60 61 61
44 45 46 46 46 46 46 46 46 46 47 48 48 49 50 51 51 50 50 50 50 50 50 50 51 51 52 52 53 53 53 54 54 55 55 56 56 56 57 58 58 58 59
42 43 44 44 44 45 45 45 45 45 46 47 48 48 49 49 49 49 49 49 48 48 49 49 50 50 51 51 51 52 52 53 53 53 54 54 53 53 54 55 55 55 56
41 41 42 43 43 43 43 44 44 44 45 45 46 46 46 47 47 47 47 47 46 47 48 48 49 49 50 50 50 50 50 50 50 50 50 50 50 51 52 52 52 52 53
39 40 40 41 41 42 42 43 43 44 44 44 44 44 44 44 44 45 45 44 45 46 47 47 47 47 47 47 47 47 47 47 47 48 48 48 48 49 50 50 50 50 50
39 40 40 40 40 40 41 41 42 43 43 43 42 42 41 41 42 42 43 43 44 44 44 45 44 44 44 44 44 45 45 46 46 46 47 47 47 47 47 47 47 48 47
38 39 40 39 39 40 40 41 41 42 41 41 41 41 41 40 40 41 41 42 41 41 41 41 41 41 42 42 43 43 44 44 44 44 44 44 44 44 44 45 45 45 46
36 37 38 39 39 39 39 40 40 40 40 41 41 40 40 39 40 40 40 40 40 40 39 39 40 40 40 40 41 41 41 41 42 42 42 42 42 42 43 43 43 44 44
36 36 36 37 38 38 38 38 38 39 39 39 39 39 39 39 39 39 39 39 39 39 39 39 39 40 40 40 40 40 40 40 40 40 39 40 40 41 41 42 42 43 43
36 36 36 36 36 37 37 38 38 38 38 38 38 38 37 37 37 38 38 38 38 38 38 38 38 38 38 38 38 38 38 38 38 38 38 38 38 38 39 40 40 41 40
34 35 36 36 36 36 36 37 37 38 37 37 37 37 37 37 37 37 38 37 37 38 38 38 38 38 38 37 37 37 37 37 37 36 36 36 37 37 37 37 38 38 38
34 34 35 35 35 36 36 36 36 36 37 37 37 37 37 37 37 37 37 36 36 37 37 36 36 36 36 35 35 35 35 35 35 35 35 35 36 36 36 36 36 36 36
34 34 34 34 34 34 35 35 35 36 37 37 37 37 37 37 37 36 36 36 36 36 36 36 36 35 35 35 35 35 35 35 35 35 35 35 35 35 35 35 36 36 36
32 33 33 33 34 34 34 35 35 35 35 36 36 36 37 37 36 36 36 36 35 35 35 35 35 34 34 35 35 35 36 35 35 35 35 35 35 35 35 36 36 36 35
30 30 31 32 33 33 33 33 34 34 34 34 35 35 36 36 35 36 36 35 35 35 35 35 35 35 35 35 34 34 35 35 35 35 35 35 34 35 35 35 35 35 35
28 29 29 29 30 30 30 31 31 32 32 32 33 33 33 34 34 34 34 34 34 35 35 34 35 35 35 35 35 35 34 34 35 35 35 35 35 34 34 34 34 34 34
27 27 28 28 28 28 29 29 29 29 30 30 30 31 32 32 32 33 33 33 33 34 34 34 34 34 34 34 34 34 34 34 34 34 35 34 34 34 33 33 33 33 33
27 27 27 27 27 28 28 28 28 29 29 29 29 29 30 31 31 31 32 32 32 33 33 33 33 33 34 34 34 34 33 33 33 33 33 33 33 33 33 33 33 33 33
26 26 27 27 27 27 28 28 28 28 28 28 29 29 30 30 30 30 31 31 31 31 32 33 33 33 33 33 33 33 33 33 33 33 33 33 33 33 33 33 33 33 33
26 27 27 27 28 28 28 28 28 28 28 28 28 29 29 29 30 30 30 31 31 31 32 32 32 33 33 33 33 33 33 33 33 33 33 33 33 32 32 32 32 33 33
27 28 28 28 28 28 28 28 28 28 29 29 29 30 30 30 30 30 30 30 31 31 32 32 32 32 33 32 32 32 32 32 32 32 32 32 32 32 32 32 33 33 33
28 28 28 28 28 28 28 28 29 29 30 30 30 30 31 31 31 31 31 31 31 31 32 32 32 32 32 32 32 32 32 32 32 31 31 31 31 32 32 33 33 33 33
28 28 28 28 28 28 29 29 29 29 29 30 30 30 30 30 30 31 30 30 31 31 31 31 31 31 31 31 31 31 31 31 31 31 31 31 31 31 31 32 32 32 32
Wind_Direction
259 259 259 259 259 260 260 260 261 262 262 262 263 264 264 264 265 265 265 267 268 268 268 268 268 267 267 268 267 267 267 266 266 266 267 266 266 267 267 267 266 266 266
260 259 259 259 259 259 260 260 261 261 261 263 264 264 264 264 264 265 266 266 267 267 267 267 268 268 268 267 266 266 267 267 267 268 268 268 267 267 268 267 266 266 267
261 260 259 258 258 258 259 259 260 260 261 263 263 263 264 264 264 265 266 267 267 267 266 267 267 268 267 267 267 267 267 267 268 268 268 269 269 269 268 267 267 267 267
262 261 260 258 258 258 258 258 259 260 261 262 263 263 264 264 264 265 266 267 267 267 267 267 267 267 267 267 268 268 268 268 269 269 270 270 270 270 269 268 268 267 266
262 261 260 259 259 258 257 257 258 259 260 261 262 263 264 264 265 265 266 267 267 267 267 267 267 267 268 269 269 269 270 269 270 270 270 270 270 270 270 269 269 267 266
262 262 260 259 259 258 257 257 257 259 260 261 262 263 263 264 265 265 266 266 267 267 268 268 268 269 270 270 270 270 270 270 271 271 271 271 271 271 271 270 269 269 268
262 262 261 260 259 259 258 258 258 259 259 260 262 263 263 264 265 265 266 266 267 267 268 269 270 271 270 271 270 270 270 270 271 271 271 272 272 271 271 271 270 270 269
261 261 261 261 260 260 259 259 259 259 259 261 262 263 263 264 264 265 265 267 268 268 269 270 271 271 270 269 269 269 269 270 270 271 272 272 272 272 272 271 271 271 271
261 261 261 261 261 261 260 260 260 259 260 261 262 262 263 264 265 265 265 266 268 269 270 271 271 271 270 269 268 269 270 270 270 271 272 273 273 272 272 271 271 272 272
262 262 261 261 261 262 262 262 261 260 260 261 261 263 264 265 265 265 266 267 268 269 270 270 270 270 270 269 269 270 270 271 271 271 272 272 273 273 272 272 272 273 273
264 263 262 262 263 263 263 263 262 261 260 260 262 263 264 265 266 267 267 267 268 269 269 270 270 270 270 270 271 272 272 272 271 271 271 272 273 273 273 273 273 273 273
266 266 265 264 264 263 263 263 262 261 262 263 264 263 264 265 266 267 267 267 268 268 268 269 270 270 270 271 272 273 273 273 273 272 272 272 272 272 272 273 273 274 274
265 266 266 266 266 266 265 264 264 263 262 263 264 264 264 266 267 267 267 267 267 267 268 269 269 269 270 272 273 273 273 273 273 272 272 272 273 273 273 274 274 274 275
266 266 267 268 268 267 267 266 264 263 262 263 263 263 264 265 267 267 267 267 267 267 268 268 268 268 269 272 273 274 273 273 273 273 273 273 273 274 274 274 274 275 276
268 268 267 268 268 267 267 266 265 263 262 262 263 263 264 266 267 267 266 266 266 266 266 267 267 268 269 270 272 273 273 273 273 273 274 274 273 273 274 275 274 275 276
269 268 268 268 268 268 266 265 264 263 262 263 263 264 265 266 267 268 267 266 266 266 266 267 268 268 269 269 271 272 273 273 273 272 273 273 273 273 273 274 274 275 275
270 270 269 268 268 267 266 265 265 263 262 263 263 265 266 267 267 268 267 266 266 266 266 267 269 269 270 270 271 272 272 272 272 272 273 273 273 272 272 272 273 274 273
271 270 269 268 268 267 266 266 266 265 265 264 264 264 265 267 267 267 266 266 265 265 266 268 269 270 270 270 271 272 272 273 272 272 273 273 273 273 273 273 273 273 273
271 270 269 268 267 268 268 267 267 266 265 264 264 264 265 266 267 266 266 266 266 266 266 267 268 269 270 270 271 272 272 272 272 271 272 272 272 272 273 273 274 274 274
271 271 270 269 269 270 269 268 267 266 266 264 264 265 266 266 266 266 266 266 266 266 267 268 269 269 270 271 271 271 271 271 271 272 272 272 272 272 273 273 273 274 274
271 272 271 270 270 270 270 269 267 266 266 264 264 265 266 267 268 268 267 267 266 267 267 268 269 270 270 270 270 270 271 271 271 272 272 272 272 272 273 273 274 274 275
269 270 271 271 272 271 270 270 268 267 266 265 265 265 265 267 268 269 269 267 267 267 268 268 269 270 271 270 270 270 271 271 271 272 272 271 271 272 272 273 274 275 276
269 269 270 272 272 271 271 269 268 266 266 265 265 267 267 268 269 269 269 269 268 268 269 269 269 270 270 270 270 271 271 271 271 272 272 272 272 272 273 273 274 276 277
268 269 270 271 271 271 270 269 267 267 267 266 266 267 268 268 269 270 269 269 269 269 270 270 270 270 270 270 270 271 271 271 271 271 272 272 272 273 274 274 276 277 278
269 269 270 271 271 271 271 270 269 268 268 268 268 268 268 268 268 269 269 269 270 270 271 271 271 271 270 270 270 270 270 270 270 271 272 272 273 274 275 275 277 278 278
272 272 272 272 272 272 271 271 270 269 268 268 268 268 268 269 268 269 270 270 271 271 272 272 271 270 270 270 269 269 269 270 270 270 272 273 274 275 276 277 277 277 278
Height
5573 5574 5575 5576 5577 5578 5578 5579 5580 5580 5581 5581 5582 5582 5582 5582 5582 5582 5582 5582 5582 5581 5581 5580 5580 5580 5580 5579 5579 5579 5579 5580 5581 5583 5582 5582 5582 5583 5583 5584 5585 5586 5587
5559 5560 5561 5562 5563 5564 5564 5565 5566 5566 5567 5567 5567 5567 5567 5567 5567 5567 5567 5567 5566 5566 5566 5565 5565 5565 5564 5564 5564 5563 5564 5564 5564 5566 5566 5565 5565 5566 5566 5567 5567 5568 5569
5545 5546 5547 5547 5548 5549 5550 5551 5551 5552 5552 5553 5553 5553 5553 5553 5553 5552 5552 5552 5551 5551 5551 5551 5550 5550 5549 5549 5548 5548 5548 5548 5548 5549 5550 5549 5549 5549 5549 5550 5550 5550 5550
5531 5532 5533 5533 5534 5535 5536 5536 5537 5538 5538 5539 5539 5539 5539 5539 5538 5538 5537 5537 5537 5536 5536 5536 5535 5535 5534 5534 5533 5533 5533 5533 5533 5533 5534 5534 5533 5532 5532 5533 5533 5533 5533
5518 5518 5519 5519 5520 5521 5522 5522 5523 5524 5524 5525 5525 5525 5525 5525 5525 5524 5524 5523 5523 5522 5522 5522 5521 5520 5520 5519 5519 5519 5518 5518 5518 5518 5518 5518 5517 5517 5516 5516 5516 5516 5516
5504 5505 5505 5506 5506 5507 5508 5509 5509 5510 5511 5511 5511 5511 5511 5511 5511 5510 5510 5510 5509 5509 5508 5508 5507 5507 5506 5505 5504 5504 5503 5503 5502 5502 5502 5502 5501 5501 5500 5499 5499 5500 5501
5491 5492 5492 5493 5493 5494 5494 5495 5496 5497 5497 5498 5498 5498 5498 5498 5497 5496 5496 5496 5496 5495 5495 5494 5494 5493 5492 5491 5490 5489 5489 5488 5487 5487 5487 5486 5486 5486 5485 5485 5484 5483 5484
5479 5479 5479 5480 5480 5481 5481 5482 5483 5483 5484 5485 5485 5485 5485 5485 5484 5483 5483 5482 5482 5482 5482 5481 5480 5479 5478 5477 5476 5476 5475 5475 5474 5473 5473 5472 5471 5470 5470 5470 5469 5469 5468
5467 5467 5467 5467 5468 5468 5469 5469 5470 5471 5471 5472 5472 5472 5472 5472 5471 5471 5470 5470 5470 5469 5469 5468 5467 5466 5465 5464 5464 5464 5463 5462 5460 5459 5458 5457 5457 5456 5455 5455 5455 5454 5454
5455 5455 5455 5455 5456 5456 5457 5457 5457 5458 5459 5459 5460 5460 5460 5460 5459 5459 5458 5458 5458 5457 5456 5455 5455 5454 5452 5451 5451 5450 5450 5449 5448 5446 5445 5444 5444 5443 5442 5442 5441 5440 5440
5443 5443 5444 5444 5444 5444 5445 5445 5445 5445 5446 5447 5447 5448 5448 5448 5447 5447 5446 5446 5445 5445 5444 5444 5443 5442 5441 5439 5439 5438 5438 5436 5435 5434 5433 5432 5431 5431 5430 5429 5428 5427 5427
5432 5432 5432 5432 5432 5432 5432 5433 5433 5433 5434 5434 5435 5435 5435 5436 5435 5435 5434 5434 5433 5433 5433 5432 5431 5430 5429 5428 5427 5427 5426 5424 5423 5423 5422 5421 5420 5419 5418 5417 5416 5415 5414
5421 5421 5421 5421 5421 5421 5421 5421 5421 5421 5422 5423 5423 5424 5424 5424 5424 5423 5423 5422 5421 5421 5421 5420 5419 5418 5418 5417 5416 5415 5414 5413 5412 5411 5411 5410 5409 5408 5406 5405 5404 5403 5402
5410 5410 5410 5410 5410 5409 5409 5409 5409 5410 5410 5411 5412 5412 5412 5412 5412 5411 5411 5410 5410 5409 5409 5408 5408 5407 5407 5406 5405 5404 5403 5402 5401 5400 5399 5399 5398 5397 5395 5394 5393 5392 5391
5399 5399 5399 5398 5398 5398 5398 5398 5398 5398 5398 5399 5400 5400 5400 5401 5400 5400 5399 5399 5398 5398 5397 5397 5397 5396 5396 5395 5394 5393 5392 5391 5390 5390 5389 5388 5387 5386 5385 5383 5382 5381 5381
5388 5388 5387 5387 5387 5387 5387 5387 5386 5386 5386 5387 5387 5388 5388 5389 5388 5388 5387 5387 5387 5386 5386 5386 5386 5386 5385 5384 5384 5383 5382 5381 5380 5379 5378 5377 5376 5375 5374 5373 5372 5371 5370
5377 5377 5376 5376 5376 5375 5375 5375 5375 5375 5375 5375 5376 5376 5376 5376 5376 5376 5375 5375 5375 5375 5375 5375 5375 5375 5374 5374 5373 5372 5371 5370 5369 5369 5368 5367 5366 5365 5364 5363 5362 5361 5360
5366 5366 5365 5365 5365 5364 5364 5364 5364 5364 5364 5364 5364 5364 5364 5365 5364 5364 5364 5364 5364 5364 5364 5365 5364 5364 5363 5363 5362 5361 5360 5359 5359 5358 5357 5356 5355 5354 5354 5353 5351 5350 5349
5356 5355 5355 5354 5354 5354 5354 5353 5353 5353 5353 5353 5353 5353 5353 5353 5353 5353 5353 5353 5353 5353 5353 5353 5353 5353 5352 5352 5351 5350 5350 5349 5348 5347 5347 5346 5345 5344 5343 5342 5341 5340 5339
5346 5346 5345 5345 5344 5344 5344 5343 5343 5343 5343 5343 5343 5343 5342 5342 5342 5342 5342 5342 5342 5342 5342 5342 5342 5342 5341 5341 5340 5339 5339 5338 5338 5337 5336 5335 5335 5334 5333 5332 5331 5331 5329
5337 5336 5335 5335 5335 5334 5334 5333 5333 5333 5333 5333 5332 5332 5332 5332 5332 5331 5331 5331 5331 5331 5331 5331 5331 5331 5330 5330 5329 5329 5328 5328 5327 5326 5326 5325 5324 5323 5323 5322 5321 5320 5319
5327 5327 5326 5325 5325 5324 5324 5323 5323 5323 5323 5323 5323 5322 5322 5322 5321 5321 5321 5320 5320 5320 5320 5320 5320 5320 5319 5319 5319 5318 5318 5317 5317 5316 5315 5314 5314 5313 5312 5312 5311 5310 5309
5317 5317 5316 5316 5315 5314 5314 5313 5313 5313 5313 5313 5313 5312 5312 5312 5311 5311 5311 5310 5310 5310 5310 5310 5310 5309 5309 5308 5308 5308 5307 5307 5306 5306 5305 5304 5304 5303 5302 5301 5301 5299 5298
5307 5307 5307 5306 5305 5305 5304 5304 5303 5303 5303 5303 5303 5302 5302 5302 5301 5301 5301 5300 5300 5300 5299 5299 5299 5299 5298 5298 5297 5297 5297 5296 5296 5295 5295 5294 5293 5293 5292 5291 5290 5289 5288
5297 5297 5296 5296 5295 5295 5294 5294 5293 5293 5293 5293 5292 5292 5292 5292 5291 5291 5290 5290 5290 5289 5289 5289 5289 5288 5288 5287 5287 5287 5286 5286 5285 5285 5285 5284 5284 5283 5282 5281 5280 5279 5277
5287 5286 5286 5285 5285 5284 5284 5283 5283 5283 5282 5282 5282 5281 5281 5281 5281 5280 5280 5280 5279 5279 5279 5278 5278 5277 5277 5277 5276 5276 5276 5275 5275 5275 5274 5274 5273 5272 5271 5271 5269 5268 5267